This is the latest recevied weather packets stored in our database for station/object PY5KT-13. If no packets are shown the sender has not sent any weather packets the latest 10 day(s).
| Time | Temp. | Humidity | Pressure | Rain* | Wind** | Luminosity | Snow |
|---|---|---|---|---|---|---|---|
| 1777569201 | 19.44° C | 78% | 1019.3 hPa | 0 mm | - | 82 W/m² | - |
| 1777568899 | 19.44° C | 78% | 1019.4 hPa | 0 mm | - | 73 W/m² | - |
| 1777568597 | 20° C | 78% | 1019.4 hPa | 0 mm | - | 73 W/m² | - |
| 1777568295 | 19.44° C | 77% | 1019.3 hPa | 0 mm | - | 72 W/m² | - |
| 1777567993 | 19.44° C | 75% | 1019.3 hPa | 0 mm | - | 74 W/m² | - |
| 1777567389 | 19.44° C | 75% | 1019.5 hPa | 0 mm | - | 94 W/m² | - |
| 1777567086 | 20° C | 75% | 1019.5 hPa | 0 mm | - | 90 W/m² | - |
| 1777566785 | 19.44° C | 76% | 1019.5 hPa | 0 mm | - | 71 W/m² | - |
| 1777566483 | 19.44° C | 76% | 1019.6 hPa | 0 mm | - | 74 W/m² | - |
| 1777566181 | 20° C | 75% | 1019.6 hPa | 0 mm | - | 68 W/m² | - |
| 1777565879 | 20° C | 74% | 1019.5 hPa | 0 mm | - | 69 W/m² | - |
| 1777565577 | 20.56° C | 71% | 1019.5 hPa | 0 mm | - | 79 W/m² | - |
| 1777565276 | 20.56° C | 72% | 1019.5 hPa | 0 mm | - | 119 W/m² | - |
| 1777564973 | 20.56° C | 73% | 1019.6 hPa | 0 mm | - | 118 W/m² | - |
| 1777564671 | 20.56° C | 72% | 1019.6 hPa | 0 mm | - | 132 W/m² | - |
| 1777564370 | 20° C | 72% | 1019.6 hPa | 0 mm | - | 139 W/m² | - |
| 1777564068 | 20.56° C | 73% | 1019.8 hPa | 0 mm | - | 150 W/m² | - |
| 1777563767 | 20° C | 74% | 1019.8 hPa | 0 mm | - | 153 W/m² | - |
| 1777563465 | 19.44° C | 77% | 1019.9 hPa | 0 mm | - | 136 W/m² | - |
| 1777563163 | 19.44° C | 77% | 1020 hPa | 0 mm | - | 116 W/m² | - |
| 1777562862 | 19.44° C | 75% | 1020 hPa | 0 mm | - | 109 W/m² | - |
| 1777562559 | 19.44° C | 76% | 1020.1 hPa | 0 mm | - | 115 W/m² | - |
| 1777562258 | 20° C | 75% | 1020.1 hPa | 0 mm | - | 172 W/m² | - |
| 1777561955 | 19.44° C | 77% | 1020.1 hPa | 0 mm | - | 158 W/m² | - |
| 1777561653 | 19.44° C | 77% | 1020.1 hPa | 0 mm | - | 162 W/m² | - |
* Rain latest hour (hover to see other rain measurements)
** Current wind speed in m/s (hover to see current wind gust speed)